Wokal Field Glasgow International Airport
KGGW : now visible

Airfield :











YOU CAN JOIN US ON...

 
LOGIN :

Register | Disclaimer

   EN    FR    IT 

 









Legend :    VFR   Marginal VFR   IFR   Intensive IFR   Very Intensive IFR
Visi :
Ceiling :
>= 8 km
>= 3000ft
5 to 8 km
1000 to 3000 ft
1500m to 5 km
500 to 1000 ft
800 to 1500m
200 to 500 ft
< 800m
< 200 ft
Symbols :   Thunderstorms  Fog  Heavy snow  Heavy precipitations  Wind > 20 kt






- Airport Elevation : 2296 ft
- IATA code : GGW


KGGW - Wokal Field Glasgow International

CURRENT METAR :
  • 161053Z AUTO 29005KT 10SM CLR 04/M02 A3005 RMK AO2 SLP187 T00441017

EXPIRED METARs :
  • 160953Z AUTO 26004KT 10SM CLR 03/M02 A3005 RMK AO2 SLP185 T00331017
  • 160853Z AUTO 26009KT 10SM CLR 04/M02 A3003 RMK AO2 SLP181 T00391017 51010

TAF KGGW
Valid from the 16 at 06:00 until the 17 at 06:00 UTC


160520Z 1606/1706 25008KT P6SM SKC WS020/30040KT
FM160700 26007KT P6SM FEW100
FM161500 VRB04KT P6SM SKC
KZLC FIR / North America



MET'MAP, your aeronautical weather chart ! - Copyright ORBIFLY December 2007 - Disclaimer

ORBIFLY MET'MAP TEAM :

Programming & Development : Alexandra Zaïnal
Concept & original design : Baudouin d'Aumeries
Assistance for programming : Marc-Olivier Méhu
Technical & hardware support : Manuel Goepfert

Contact : metmap@orbifly.com




SOURCES & CREDITS :

   NOAA       Earth
Advisory